Find Shikongxing 01

NORAD ID: 65712 Int'l Des: 2025-214 Owner: PKU Country: CN operational
LEOCIRCULAR

当前视图

正在加载3D地球...

关于 Shikongxing 01

正在加载描述...

即将过境

Passes for default location (London). Set your location on the main map for personalized predictions.

高度历史

Loading altitude history...

两行轨道根数

1 65712U 25214A 26149.04968744 .00003115 00000-0 32149-3 0 9991
2 65712 49.9871 24.0049 0013167 174.3693 185.7400 14.92735152 36846
Epoch: May 29, 2026 • Age: 31 hours

当前状态

高度 598.0 km
速度 7.56 km/s
星下点 11.60°N, 23.25°E
发射日期 Sep 24, 2025
运行时间 0.6 years
类型 other

技术详情

分类 Payload
质量 40.00 kg
干质量 40.00 kg
总质量 40.00 kg
长度 0.50 m
直径 0.50 m
跨度 0.50 m
形状 Box
制造商 SDK
平台类型 GPS50
阶段状态 In Orbit
所有者/国家 PKU/CN

Most Searched